TimeEST,TemperatureF,Dew PointF,Humidity,Sea Level PressureIn,VisibilityMPH,Wind Direction,Wind SpeedMPH,Gust SpeedMPH,PrecipitationIn,Events,Conditions,WindDirDegrees,DateUTC
12:53 AM,5.0,3.0,92,30.33,7.0,Calm,Calm,-,N/A,,Clear,0,2013-01-08 05:53:00
1:53 AM,5.0,1.0,84,30.33,9.0,Calm,Calm,-,N/A,,Clear,0,2013-01-08 06:53:00
2:53 AM,3.9,-0.9,80,30.32,9.0,Calm,Calm,-,N/A,,Clear,0,2013-01-08 07:53:00
3:53 AM,1.0,-2.9,83,30.30,9.0,Calm,Calm,-,N/A,,Clear,0,2013-01-08 08:53:00
4:53 AM,1.9,-2.0,83,30.30,9.0,Calm,Calm,-,N/A,,Clear,0,2013-01-08 09:53:00
5:53 AM,1.0,-2.0,87,30.32,8.0,Calm,Calm,-,N/A,,Clear,0,2013-01-08 10:53:00
6:53 AM,1.9,-2.0,83,30.34,8.0,Calm,Calm,-,N/A,,Clear,0,2013-01-08 11:53:00
7:53 AM,1.0,-2.9,83,30.36,6.0,Calm,Calm,-,N/A,,Clear,0,2013-01-08 12:53:00
8:53 AM,9.0,6.1,88,30.36,7.0,Calm,Calm,-,N/A,,Clear,0,2013-01-08 13:53:00
9:53 AM,26.1,21.0,81,30.35,6.0,SSW,11.5,17.3,N/A,,Haze,200,2013-01-08 14:53:00
10:53 AM,28.9,21.0,72,30.35,7.0,SSW,10.4,-,N/A,,Clear,200,2013-01-08 15:53:00
11:53 AM,30.9,21.0,67,30.32,7.0,South,6.9,-,N/A,,Clear,190,2013-01-08 16:53:00
12:53 PM,32.0,21.0,64,30.31,7.0,SSE,8.1,-,N/A,,Clear,160,2013-01-08 17:53:00
1:53 PM,33.1,21.9,64,30.31,7.0,South,8.1,-,N/A,,Clear,180,2013-01-08 18:53:00
2:53 PM,35.1,21.9,59,30.31,8.0,South,6.9,-,N/A,,Clear,180,2013-01-08 19:53:00
3:53 PM,35.1,21.9,59,30.33,7.0,SSE,6.9,-,N/A,,Clear,160,2013-01-08 20:53:00
4:53 PM,27.0,19.9,75,30.35,8.0,South,6.9,-,N/A,,Clear,190,2013-01-08 21:53:00
5:53 PM,24.1,18.0,77,30.36,8.0,NE,3.5,-,N/A,,Clear,40,2013-01-08 22:53:00
6:53 PM,23.0,17.1,78,30.38,8.0,Calm,Calm,-,N/A,,Clear,0,2013-01-08 23:53:00
7:53 PM,19.9,16.0,85,30.40,7.0,Calm,Calm,-,N/A,,Clear,0,2013-01-09 00:53:00
8:53 PM,18.0,12.9,81,30.39,6.0,Calm,Calm,-,N/A,,Haze,0,2013-01-09 01:53:00
9:53 PM,18.0,15.1,88,30.39,6.0,Calm,Calm,-,N/A,,Clear,0,2013-01-09 02:53:00
10:53 PM,15.1,12.0,88,30.40,6.0,Calm,Calm,-,N/A,,Clear,0,2013-01-09 03:53:00
11:53 PM,12.2,8.6,85,30.37,7.0,Calm,Calm,-,N/A,,Clear,0,2013-01-09 04:53:00